Find OneWeb SL0027

NORAD ID: 45432 Int'l Des: 2020-020 Owner: ONEWEB Country: UK Constellation: oneweb operational
別名: ONEWEB-0027 spacetrack, celestrak
LEOCIRCULARPOLARONEWEB_TYPE

現在のビュー

3D地球を読み込み中...

About OneWeb SL0027

OneWeb SL0027 (NORAD 45432) is a oneweb constellation satellite launched Mar 21, 2020 by ONEWEB of UK. It operates in LEO, CIRCULAR, POLAR, ONEWEB_TYPE orbit with a mass of 148.00 kg.

次回通過

Passes for default location (London). Set your location on the main map for personalized predictions.

高度履歴

Loading altitude history...

軌道要素

1 45432U 20020J 26265.61118147 .00000049 00000-0 92672-4 0 9995
2 45432 87.9201 346.5219 0001515 106.6561 253.4737 13.17648359319184
Epoch: Sep 22, 2026 • Age: 14 hours

現在のステータス

高度 1200.2 km
遠地点 / 近地点 N/A
速度 7.25 km/s
衛星直下点 -16.31°S, 98.71°E
打ち上げ日 Mar 21, 2020
運用期間 6.5 years
タイプ internet

技術仕様

分類 Payload
質量 148.00 kg
乾燥質量 140.00 kg
長さ 1.30 m
直径 1.00 m
スパン 5.00 m
形状 ? Trapezoid+2 pan
製造者 ONEWUS
バスタイプ ARROW
フェーズステータス In Orbit
所有者/国 ONEWEB/UK

Most Searched